Benson, MN

6:42 PM CST on December 04, 2016 (GMT -0600)
Benson Municipal

Weather History for KBBB - October, 2011

Change the Weather History Date:

Tuesday, October 25, 2011

  Actual Average Record
Temperature  
Mean Temperature 48 °F -  
Max Temperature 51 °F 55 °F 83 °F (1989)
Min Temperature 42 °F 35 °F 19 °F (1957)
Degree Days  
Heating Degree Days 18    
Moisture  
Dew Point 37 °F    
Average Humidity 69    
Maximum Humidity 87    
Minimum Humidity 50    
Precipitation  
Precipitation 0.00 in - - ()
Sea Level Pressure  
Sea Level Pressure 29.95 in    
Wind  
Wind Speed 9 mph (East)    
Max Wind Speed 14 mph    
Max Gust Speed 20 mph    
Visibility 10 miles    
Events Rain    
Averages and records for this station are not official NWS values.
T = Trace of Precipitation, MM = Missing Value Source: NWS Daily Summary

Daily Weather History Graph

Daily Weather History Graph

Search for Another Location

Airport or City:

Trip Planner

Search our weather history database for the weather conditions in past years. The results will help you decide how hot, cold, wet, or windy it might be!

Date:

Astronomy

Oct. 25, 2011 Rise Set
Actual Time 7:51 AM CDT 6:20 PM CDT
Civil Twilight 7:21 AM CDT 6:51 PM CDT
Nautical Twilight 6:46 AM CDT 7:25 PM CDT
Astronomical Twilight 6:12 AM CDT 7:59 PM CDT
Moon 6:23 AM CDT (10/25) 5:22 PM CDT (10/25)
Length of Visible Light 11h 29m
Length of Day
10h 29m
Waning Crescent, 2% of the Moon is Illuminated
Oct 25
Waning Crescent
Oct 26
New
Nov 2
First Quarter
Nov 10
Full
Nov 18
Last Quarter

Hourly Weather History & Observations

Time (CDT) Temp. Windchill Dew Point Humidity Pressure Visibility Wind Dir Wind Speed Gust Speed Precip Events Conditions
12:12 AM 46.4 °F 42.4 °F 42.8 °F 87% 29.93 in 10.0 mi East 8.1 mph - N/A   Clear
12:32 AM 46.4 °F 41.5 °F 41.0 °F 81% 29.93 in 10.0 mi East 10.4 mph - N/A   Clear
12:52 AM 48.2 °F - 41.0 °F 76% 29.92 in 10.0 mi East 11.5 mph - N/A   Clear
1:12 AM 46.4 °F 42.4 °F 41.0 °F 81% 29.91 in 10.0 mi East 8.1 mph 16.1 mph N/A   Clear
1:33 AM 48.2 °F - 39.2 °F 71% 29.92 in 10.0 mi ESE 9.2 mph - N/A   Clear
2:12 AM 46.4 °F 42.4 °F 39.2 °F 76% 29.92 in 10.0 mi ESE 8.1 mph - N/A   Clear
2:33 AM 46.4 °F 41.5 °F 39.2 °F 76% 29.92 in 10.0 mi East 10.4 mph 17.3 mph N/A   Clear
2:52 AM 46.4 °F 40.7 °F 37.4 °F 71% 29.91 in 10.0 mi East 12.7 mph - N/A   Clear
3:12 AM 46.4 °F 41.9 °F 37.4 °F 71% 29.91 in 10.0 mi East 9.2 mph - N/A   Clear
3:33 AM 46.4 °F 41.5 °F 37.4 °F 71% 29.90 in 10.0 mi East 10.4 mph - N/A   Clear
3:52 AM 46.4 °F 41.9 °F 37.4 °F 71% 29.90 in 10.0 mi East 9.2 mph - N/A   Clear
4:12 AM 44.6 °F 40.2 °F 37.4 °F 76% 29.90 in 10.0 mi East 8.1 mph - N/A   Clear
4:32 AM 44.6 °F 39.7 °F 37.4 °F 76% 29.90 in 10.0 mi East 9.2 mph - N/A   Clear
4:52 AM 44.6 °F 39.7 °F 37.4 °F 76% 29.90 in 10.0 mi East 9.2 mph - N/A   Clear
5:13 AM 44.6 °F 39.7 °F 37.4 °F 76% 29.90 in 10.0 mi East 9.2 mph - N/A   Clear
5:32 AM 44.6 °F 39.2 °F 37.4 °F 76% 29.89 in 10.0 mi East 10.4 mph - N/A   Clear
5:52 AM 44.6 °F 39.7 °F 35.6 °F 71% 29.88 in 10.0 mi East 9.2 mph - N/A   Clear
6:13 AM 44.6 °F 39.7 °F 35.6 °F 71% 29.88 in 10.0 mi East 9.2 mph - N/A   Clear
6:32 AM 44.6 °F 40.2 °F 35.6 °F 71% 29.88 in 10.0 mi East 8.1 mph - N/A   Clear
6:52 AM 44.6 °F 40.7 °F 35.6 °F 71% 29.88 in 10.0 mi ENE 6.9 mph - N/A   Clear
7:13 AM 44.6 °F 39.2 °F 35.6 °F 71% 29.87 in 10.0 mi East 10.4 mph 18.4 mph N/A   Clear
7:32 AM 44.6 °F 40.2 °F 35.6 °F 71% 29.88 in 10.0 mi East 8.1 mph - N/A   Clear
7:52 AM 44.6 °F 39.2 °F 35.6 °F 71% 29.89 in 10.0 mi East 10.4 mph - N/A   Clear
8:12 AM 44.6 °F 39.7 °F 35.6 °F 71% 29.90 in 10.0 mi East 9.2 mph - N/A   Scattered Clouds
8:32 AM 46.4 °F 41.1 °F 35.6 °F 66% 29.91 in 10.0 mi East 11.5 mph 19.6 mph N/A   Overcast
8:53 AM 46.4 °F 41.1 °F 35.6 °F 66% 29.91 in 10.0 mi East 11.5 mph 19.6 mph N/A   Overcast
9:12 AM 46.4 °F 41.1 °F 35.6 °F 66% 29.92 in 10.0 mi East 11.5 mph 17.3 mph N/A   Overcast
9:32 AM 46.4 °F 41.5 °F 35.6 °F 66% 29.93 in 10.0 mi ENE 10.4 mph - N/A   Overcast
10:12 AM 48.2 °F - 35.6 °F 62% 29.94 in 10.0 mi ENE 10.4 mph 18.4 mph N/A   Overcast
10:32 AM 48.2 °F - 35.6 °F 62% 29.93 in 10.0 mi East 9.2 mph 16.1 mph N/A   Overcast
10:52 AM 50.0 °F - 35.6 °F 58% 29.94 in 10.0 mi East 10.4 mph 18.4 mph N/A   Mostly Cloudy
11:12 AM 50.0 °F - 35.6 °F 58% 29.94 in 10.0 mi East 9.2 mph 12.7 mph N/A   Mostly Cloudy
11:33 AM 50.0 °F - 35.6 °F 58% 29.93 in 10.0 mi East 11.5 mph 18.4 mph N/A   Scattered Clouds
11:52 AM 51.8 °F - 33.8 °F 50% 29.93 in 10.0 mi ENE 12.7 mph 17.3 mph N/A   Clear
12:12 PM 51.8 °F - 35.6 °F 54% 29.94 in 10.0 mi ENE 9.2 mph - N/A   Clear
12:33 PM 51.8 °F - 35.6 °F 54% 29.93 in 10.0 mi East 11.5 mph 17.3 mph N/A   Clear
12:52 PM 51.8 °F - 33.8 °F 50% 29.93 in 10.0 mi East 11.5 mph 18.4 mph N/A   Scattered Clouds
1:12 PM 51.8 °F - 33.8 °F 50% 29.94 in 10.0 mi ENE 12.7 mph 18.4 mph N/A   Scattered Clouds
1:33 PM 51.8 °F - 35.6 °F 54% 29.95 in 10.0 mi NE 11.5 mph 19.6 mph N/A   Scattered Clouds
1:52 PM 51.8 °F - 35.6 °F 54% 29.95 in 10.0 mi NE 13.8 mph 19.6 mph N/A Rain Light Rain
2:12 PM 50.0 °F - 35.6 °F 58% 29.96 in 10.0 mi NE 10.4 mph - N/A   Light Drizzle
2:32 PM 50.0 °F - 35.6 °F 58% 29.96 in 10.0 mi ENE 11.5 mph 19.6 mph N/A Rain Light Rain
2:52 PM 50.0 °F - 35.6 °F 58% 29.97 in 10.0 mi ENE 11.5 mph 17.3 mph N/A   Mostly Cloudy
3:13 PM 50.0 °F - 35.6 °F 58% 29.97 in 10.0 mi ENE 12.7 mph 17.3 mph N/A Rain Light Rain
3:32 PM 50.0 °F - 37.4 °F 62% 29.98 in 10.0 mi NE 12.7 mph - N/A   Light Drizzle
3:52 PM 48.2 °F - 37.4 °F 66% 29.98 in 10.0 mi ENE 10.4 mph - N/A   Light Drizzle
4:13 PM 48.2 °F - 37.4 °F 66% 29.99 in 10.0 mi ENE 9.2 mph - N/A   Overcast
4:33 PM 48.2 °F - 37.4 °F 66% 30.00 in 10.0 mi ENE 8.1 mph - N/A   Overcast
4:52 PM 46.4 °F 42.4 °F 37.4 °F 71% 30.01 in 10.0 mi ENE 8.1 mph - N/A   Overcast
5:13 PM 46.4 °F 42.4 °F 37.4 °F 71% 30.01 in 10.0 mi ENE 8.1 mph - N/A   Overcast
5:32 PM 46.4 °F 41.5 °F 37.4 °F 71% 30.01 in 10.0 mi ENE 10.4 mph - N/A   Overcast
5:52 PM 46.4 °F 42.4 °F 39.2 °F 76% 30.01 in 10.0 mi ENE 8.1 mph - N/A   Overcast
6:13 PM 46.4 °F 42.4 °F 37.4 °F 71% 30.00 in 10.0 mi ENE 8.1 mph - N/A   Overcast
6:32 PM 44.6 °F 40.2 °F 37.4 °F 76% 30.01 in 10.0 mi East 8.1 mph - N/A   Overcast
6:53 PM 44.6 °F 41.4 °F 37.4 °F 76% 30.01 in 10.0 mi East 5.8 mph - N/A   Overcast
7:12 PM 44.6 °F 40.7 °F 37.4 °F 76% 30.02 in 10.0 mi ENE 6.9 mph - N/A   Overcast
7:32 PM 44.6 °F 41.4 °F 37.4 °F 76% 30.04 in 10.0 mi ENE 5.8 mph - N/A   Overcast
7:53 PM 44.6 °F 41.4 °F 37.4 °F 76% 30.05 in 10.0 mi ENE 5.8 mph - N/A   Overcast
8:12 PM 44.6 °F 43.1 °F 37.4 °F 76% 30.06 in 10.0 mi ENE 3.5 mph - N/A   Overcast
8:32 PM 44.6 °F 41.4 °F 37.4 °F 76% 30.04 in 10.0 mi East 5.8 mph - N/A   Overcast
8:53 PM 44.6 °F - 37.4 °F 76% 30.05 in 10.0 mi Calm Calm - N/A   Overcast
9:12 PM 44.6 °F - 37.4 °F 76% 30.06 in 10.0 mi Calm Calm - N/A   Overcast
9:32 PM 42.8 °F - 37.4 °F 81% 30.07 in 10.0 mi Calm Calm - N/A   Overcast
9:53 PM 42.8 °F - 37.4 °F 81% 30.06 in 10.0 mi Calm Calm - N/A   Overcast
10:12 PM 42.8 °F - 37.4 °F 81% 30.07 in 10.0 mi Calm Calm - N/A   Overcast
10:52 PM 42.8 °F - 37.4 °F 81% 30.07 in 10.0 mi Calm Calm - N/A   Overcast
11:12 PM 41.0 °F 39.0 °F 37.4 °F 87% 30.07 in 10.0 mi NNW 3.5 mph - N/A   Overcast
11:33 PM 42.8 °F - 37.4 °F 81% 30.06 in 10.0 mi Calm Calm - N/A   Overcast
11:52 PM 41.0 °F - 37.4 °F 87% 30.06 in 10.0 mi Calm Calm - N/A   Overcast